Location: Goettingen
(51.5300°N, 9.9433°E)
Time: 00:21:05
(UTC+02:00)

ISS - Pass Details

Date: 23 April 2025
Orbit: 417 x 420 km, 51.6° (Epoch: 29 April)

Event Time Altitude Azimuth Distance (km) Brightness Sun altitude
Exits shadow 05:17:06 - 214° (SW) 1,587 -1.4 -7.8°
Reaches altitude 10° 05:17:22 10° 212° (SSW) 1,490 -1.5 -7.8°
Maximum altitude 05:20:20 30° 150° (SSE) 784 -2.4 -7.4°
Drops below altitude 10° 05:23:19 10° 87° (E) 1,497 0.2 -7.0°
Sets 05:25:33 0° 76° (ENE) 2,363 1.8 -6.7°
